Location: Althorst
(53.6379°N, 10.7715°E)
Time: 23:45:51
(UTC+00:00)

AQUARIUS - Pass Details

Date: 10 December 2019
Orbit: 650 x 653 km, 98.0° (Epoch: 18 January)

Event Time Altitude Azimuth Distance (km) Brightness Sun altitude
Rises 15:54:38 0° 145° (SE) 2,968 7.5 -7.9°
Reaches altitude 10° 15:56:54 10° 140° (SE) 2,061 6.6 -8.2°
Maximum altitude 16:01:11 46° 67° (ENE) 882 4.4 -8.8°
Drops below altitude 10° 16:05:30 10° 355° (N) 2,075 6.5 -9.4°
Sets 16:07:48 0° 349° (N) 2,991 7.4 -9.7°
